HOME
ABOUT US
SERVICES
WEATHER INFORMATION
MEDIA CENTER
CARGO SERVICES
ENTRY PASS
TOURIST INFORMATION
CAREERS
AIRPORT MANAGEMENT TEAM
CONTACT US
 
  SUBMIT
 
 
WEATHER - TAF
The most recent TAF in our system was generated at the source at:

06/07/2015 17:49:24  UTC

TAF OMFJ 061700Z 0618/0724 VRB03KT 7000 NSC TEMPO 0622/0704 4000 HZ FEW020 BECMG 0704/0706 08008KT BECMG 0714/0716 VRB03KT

The information available here could be used for flight planning or other operational purposes. For further information on this aspect, please contact Fujairah International Airport Authority.

For further enquiries, please contact MET Section of Airport at :-
Email : met@fujairah-airport.com
Tel : +971 9 2055507
Fax : +971 9 2223149
Contat Us | Suggestions & Complaints | Links | Location Map | Employee Mail Copyright (c) 2013 Fujairah International Airport | All Rights Reserved.